Location: Briis
(48.6240°N, 2.1211°E)
Time: 14:51:51
(UTC+00:00)

USA 306 - Pass Details

Date: 25 September 2020
Orbit: 568 x 579 km, 54.0° (Epoch: 19 October)

Event Time Altitude Azimuth Distance (km) Brightness Sun altitude
Exits shadow 02:40:41 36° 36° (NE) 920 4.3 -29.0°
Drops below altitude 10° 02:43:29 10° 61° (ENE) 1,872 6.5 -28.7°
Sets 02:45:48 0° 66° (ENE) 2,770 7.6 -28.4°
